Tracking 19634 objects as of 23-May-2019
HD Live streaming from Space Station
objects crossing your sky now

IRIDIUM 37


IRIDIUM 37 is no longer on orbit
IRIDIUM 37 is classified as:


NORAD ID: 24968
Int'l Code: 1997-056D
Perigee: N/A
Apogee: N/A
Inclination: N/A
Period: N/A
Semi major axis: N/A
RCS: N/A
Launch date: September 27, 1997
Source: United States (US)
Launch site: AIR FORCE WESTERN TEST RANGE (AFWTR)
Decay date: 2018-05-26
aabbcc
Your satellite tracking list
Your tracking list is empty




NASA's NSSDC Master Catalog

Two Line Element Set (TLE):
1 24968U 97056D   18145.92597408  .13759171 -15624-5  28462-3 0  9992
2 24968  86.3531 163.1800 0013823  29.0123 331.5952 16.45904624 83291
Source of the keplerian elements: AFSPC